Weather History for Soldotna, AK

Change the Weather History Date:

Tuesday, October 4, 2011

  Actual Average Record
Temperature  
Mean Temperature 38 °F -  
Max Temperature 51 °F 46 °F 59 °F (2001)
Min Temperature 26 °F 32 °F 19 °F (1970)
Degree Days  
Heating Degree Days 26    
Moisture  
Dew Point 31 °F    
Average Humidity 80    
Maximum Humidity 100    
Minimum Humidity 50    
Precipitation  
Precipitation 0.00 in - - ()
Sea Level Pressure  
Sea Level Pressure 29.52 in    
Wind  
Wind Speed 2 mph (East)    
Max Wind Speed 7 mph    
Max Gust Speed -    
Visibility 10 miles    
Events      
Averages and records for this station are not official NWS values.
T = Trace of Precipitation, MM = Missing Value Source: NWS Daily Summary

Daily Weather History Graph

Daily Weather History Graph

Search for Another Location

Airport:

Trip Planner

Search our weather history database for the weather conditions in past years. The results will help you decide how hot, cold, wet, or windy it might be!

Date:

Astronomy

Oct. 04, 2011 Rise Set
Actual Time 8:17 AM AKDT 7:27 PM AKDT
Civil Twilight 7:35 AM AKDT 8:09 PM AKDT
Nautical Twilight 6:45 AM AKDT 8:58 PM AKDT
Astronomical Twilight 5:54 AM AKDT 9:49 PM AKDT
Moon 5:14 PM AKDT (10/4) No Moon Set
Length of Visible Light 12h 33m
Length of Day
11h 09m
First Quarter, 57% of the Moon is Illuminated
Oct 4
First Quarter
Oct 11
Full
Oct 19
Last Quarter
Oct 26
New
Nov 2
First Quarter

Hourly Weather History & Observations

Time (AKDT) Temp. Windchill Dew Point Humidity Pressure Visibility Wind Dir Wind Speed Gust Speed Precip Events Conditions
12:16 AM 30.2 °F 26.7 °F 28.4 °F 93% 29.49 in 10.0 mi East 3.5 mph - N/A   Partly Cloudy
12:36 AM 30.2 °F - 28.4 °F 93% 29.49 in 10.0 mi Calm Calm - N/A   Mostly Cloudy
1:16 AM 28.4 °F 24.6 °F 28.4 °F 100% 29.49 in 10.0 mi East 3.5 mph - N/A   Partly Cloudy
1:36 AM 30.2 °F - 28.4 °F 93% 29.49 in 10.0 mi Calm Calm - N/A   Clear
1:56 AM 28.4 °F 24.6 °F 28.4 °F 100% 29.50 in 0.8 mi East 3.5 mph - N/A   Mostly Cloudy
2:16 AM 28.4 °F 24.6 °F 26.6 °F 93% 29.50 in 0.8 mi East 3.5 mph - N/A   Unknown
2:36 AM 30.2 °F 26.7 °F 28.4 °F 93% 29.51 in 10.0 mi East 3.5 mph - N/A   Clear
2:56 AM 28.4 °F 24.6 °F 26.6 °F 93% 29.51 in 10.0 mi East 3.5 mph - N/A   Clear
3:16 AM 28.4 °F 23.3 °F 26.6 °F 93% 29.51 in 10.0 mi East 4.6 mph - N/A   Partly Cloudy
3:36 AM 28.4 °F 24.6 °F 28.4 °F 100% 29.51 in 10.0 mi East 3.5 mph - N/A   Mostly Cloudy
3:56 AM 28.4 °F 24.6 °F 26.6 °F 93% 29.51 in 10.0 mi East 3.5 mph - N/A   Overcast
4:16 AM 28.4 °F 23.3 °F 28.4 °F 100% 29.51 in 10.0 mi East 4.6 mph - N/A   Scattered Clouds
4:36 AM 28.4 °F 24.6 °F 26.6 °F 93% 29.51 in 10.0 mi East 3.5 mph - N/A   Clear
4:56 AM 28.4 °F 24.6 °F 26.6 °F 93% 29.51 in 10.0 mi East 3.5 mph - N/A   Partly Cloudy
5:16 AM 28.4 °F 24.6 °F 26.6 °F 93% 29.51 in 10.0 mi East 3.5 mph - N/A   Mostly Cloudy
5:36 AM 30.2 °F 26.7 °F 28.4 °F 93% 29.52 in 10.0 mi ENE 3.5 mph - N/A   Overcast
5:56 AM 28.4 °F - 26.6 °F 93% 29.52 in 10.0 mi Calm Calm - N/A   Overcast
6:16 AM 30.2 °F 26.7 °F 28.4 °F 93% 29.52 in 10.0 mi East 3.5 mph - N/A   Mostly Cloudy
6:36 AM 30.2 °F - 28.4 °F 93% 29.52 in 10.0 mi Calm Calm - N/A   Mostly Cloudy
6:56 AM 28.4 °F - 26.6 °F 93% 29.52 in 10.0 mi Calm Calm - N/A   Scattered Clouds
7:16 AM 28.4 °F - 24.8 °F 86% 29.52 in 10.0 mi Calm Calm - N/A   Mostly Cloudy
7:36 AM 28.4 °F - 26.6 °F 93% 29.52 in 10.0 mi Calm Calm - N/A   Partly Cloudy
7:56 AM 28.4 °F - 26.6 °F 93% 29.52 in 10.0 mi Calm Calm - N/A   Clear
8:16 AM 26.6 °F 22.6 °F 24.8 °F 93% 29.52 in - East 3.5 mph - N/A   Unknown
8:36 AM 26.6 °F - 24.8 °F 93% 29.52 in 10.0 mi Calm Calm - N/A   Clear
8:56 AM 26.6 °F - 24.8 °F 93% 29.52 in 10.0 mi Calm Calm - N/A   Clear
9:16 AM 28.4 °F - 26.6 °F 93% 29.52 in 9.0 mi Calm Calm - N/A   Clear
9:36 AM 28.4 °F - 26.6 °F 93% 29.52 in 10.0 mi Calm Calm - N/A   Clear
9:56 AM 30.2 °F 26.7 °F 28.4 °F 93% 29.52 in 10.0 mi East 3.5 mph - N/A   Clear
10:16 AM 32.0 °F 27.5 °F 30.2 °F 93% 29.53 in 10.0 mi East 4.6 mph - N/A   Clear
10:36 AM 33.8 °F - 32.0 °F 93% 29.53 in 10.0 mi Calm Calm - N/A   Clear
10:56 AM 35.6 °F - 33.8 °F 93% 29.53 in 10.0 mi Calm Calm - N/A   Clear
11:16 AM 37.4 °F - 35.6 °F 93% 29.53 in 10.0 mi Calm Calm - N/A   Clear
11:36 AM 41.0 °F - 37.4 °F 87% 29.53 in 10.0 mi Calm Calm - N/A   Clear
11:56 AM 44.6 °F - 35.6 °F 71% 29.53 in 10.0 mi Calm Calm - N/A   Clear
12:16 PM 44.6 °F 43.1 °F 35.6 °F 71% 29.54 in 10.0 mi West 3.5 mph - N/A   Clear
12:36 PM 44.6 °F - 35.6 °F 71% 29.54 in 10.0 mi Calm Calm - N/A   Clear
12:56 PM 46.4 °F - 35.6 °F 66% 29.54 in 10.0 mi Calm Calm - N/A   Clear
1:16 PM 46.4 °F 45.2 °F 33.8 °F 62% 29.53 in 10.0 mi WNW 3.5 mph - N/A   Clear
1:36 PM 48.2 °F - 33.8 °F 58% 29.53 in 10.0 mi Calm Calm - N/A   Clear
1:56 PM 48.2 °F - 33.8 °F 58% 29.53 in 10.0 mi WNW 4.6 mph - N/A   Clear
2:16 PM 48.2 °F - 33.8 °F 58% 29.53 in 10.0 mi Calm Calm - N/A   Clear
2:36 PM 48.2 °F - 33.8 °F 58% 29.53 in 10.0 mi WSW 3.5 mph - N/A   Clear
2:56 PM 50.0 °F - 33.8 °F 54% 29.53 in 10.0 mi Calm Calm - N/A   Clear
3:16 PM 50.0 °F - 32.0 °F 50% 29.52 in 10.0 mi Calm Calm - N/A   Clear
3:36 PM 51.8 °F - 33.8 °F 50% 29.52 in 10.0 mi West 3.5 mph - N/A   Clear
3:56 PM 51.8 °F - 35.6 °F 54% 29.52 in 10.0 mi WSW 5.8 mph - N/A   Partly Cloudy
4:16 PM 51.8 °F - 35.6 °F 54% 29.52 in 10.0 mi NW 3.5 mph - N/A   Clear
4:36 PM 51.8 °F - 35.6 °F 54% 29.52 in 10.0 mi WSW 5.8 mph - N/A   Clear
4:56 PM 51.8 °F - 33.8 °F 50% 29.52 in 10.0 mi West 5.8 mph - N/A   Clear
5:16 PM 51.8 °F - 33.8 °F 50% 29.51 in 10.0 mi West 4.6 mph - N/A   Clear
5:36 PM 50.0 °F - 33.8 °F 54% 29.51 in 10.0 mi West 3.5 mph - N/A   Clear
5:56 PM 50.0 °F - 33.8 °F 54% 29.51 in 10.0 mi West 4.6 mph - N/A   Clear
6:16 PM 48.2 °F - 33.8 °F 58% 29.51 in 10.0 mi West 6.9 mph - N/A   Clear
6:36 PM 48.2 °F - 35.6 °F 62% 29.51 in 10.0 mi West 5.8 mph - N/A   Clear
6:56 PM 46.4 °F 43.5 °F 33.8 °F 62% 29.51 in 10.0 mi West 5.8 mph - N/A   Clear
7:16 PM 44.6 °F 42.2 °F 35.6 °F 71% 29.52 in 10.0 mi West 4.6 mph - N/A   Clear
7:36 PM 42.8 °F - 33.8 °F 70% 29.52 in 10.0 mi Calm Calm - N/A   Clear
7:56 PM 39.2 °F - 33.8 °F 81% 29.52 in 10.0 mi Calm Calm - N/A   Clear
8:16 PM 37.4 °F - 32.0 °F 81% 29.52 in 10.0 mi Calm Calm - N/A   Clear
8:36 PM 35.6 °F - 30.2 °F 81% 29.52 in 10.0 mi Calm Calm - N/A   Clear
8:56 PM 35.6 °F - 32.0 °F 87% 29.53 in 10.0 mi Calm Calm - N/A   Clear
9:16 PM 33.8 °F - 28.4 °F 81% 29.53 in 10.0 mi Calm Calm - N/A   Clear
9:36 PM 33.8 °F 30.8 °F 30.2 °F 87% 29.54 in 10.0 mi ENE 3.5 mph - N/A   Clear
9:56 PM 32.0 °F - 28.4 °F 87% 29.54 in 10.0 mi Calm Calm - N/A   Clear
10:16 PM 30.2 °F 26.7 °F 28.4 °F 93% 29.54 in 10.0 mi East 3.5 mph - N/A   Clear
10:36 PM 30.2 °F - 28.4 °F 93% 29.54 in 10.0 mi Calm Calm - N/A   Clear
10:56 PM 30.2 °F - 26.6 °F 86% 29.54 in 10.0 mi Calm Calm - N/A   Clear
11:16 PM 30.2 °F - 26.6 °F 86% 29.55 in 10.0 mi Calm Calm - N/A   Clear
11:36 PM 30.2 °F - 26.6 °F 86% 29.55 in 10.0 mi Calm Calm - N/A   Clear
11:56 PM 28.4 °F - 26.6 °F 93% 29.55 in 10.0 mi Calm Calm - N/A   Clear